When you browse on this site, cookies collect data to enhance your experience and personalize the content and advertising you see.
Visit our Privacy Policy to learn more. By continuing to use the site, you agree to this use of cookies and data.
  • In Lithuania
  • List of Countries
  • For 7 days
  • Water Temperature
  • Satellite Maps
  • Weather Map
  • Weather Widgets
  • user-avatar
    Login

    Hourly Weather Booué

    Today, 22 January, Tuesday

    Time Temperature Precipitation Wind Pressure Humidity
    00:00 +26°C° 0 mm 1 mps 735 mmHg 86%
    01:00 +25°C° 0 mm 1 mps 735 mmHg 88%
    02:00 +25°C° 0 mm 1 mps 735 mmHg 89%
    03:00 +25°C° 0 mm 1 mps 734 mmHg 90%
    04:00 +25°C° 0 mm 1 mps 734 mmHg 91%
    05:00 +25°C° 0 mm 1 mps 735 mmHg 91%
    06:00 +23°C° 0 mm 0 mps 735 mmHg 91%
    07:00 +23°C° 0 mm 0 mps 735 mmHg 91%
    08:00 +27°C° 0 mm 1 mps 736 mmHg 81%
    09:00 +30°C° 0 mm 1 mps 736 mmHg 71%
    10:00 +32°C° 0 mm 1 mps 736 mmHg 60%
    11:00 +33°C° 0 mm 1 mps 736 mmHg 56%
    12:00 +34°C° 0 mm 1 mps 735 mmHg 52%
    13:00 +35°C° 0 mm 1 mps 734 mmHg 48%
    14:00 +35°C° 0.2 mm 1 mps 734 mmHg 48%
    15:00 +35°C° 0.2 mm 1 mps 733 mmHg 49%
    16:00 +35°C° 0.2 mm 1 mps 732 mmHg 49%
    17:00 +32°C° 0.5 mm 1 mps 732 mmHg 59%
    18:00 +30°C° 0.5 mm 2 mps 733 mmHg 69%
    19:00 +28°C° 0.5 mm 2 mps 733 mmHg 78%
    20:00 +27°C° 0.2 mm 2 mps 734 mmHg 82%
    21:00 +27°C° 0.2 mm 2 mps 734 mmHg 85%
    22:00 +26°C° 0.2 mm 2 mps 735 mmHg 89%
    23:00 +26°C° 0 mm 2 mps 735 mmHg 90%

    Tomorrow, 23 January, Wednesday

    Time Temperature Precipitation Wind Pressure Humidity
    00:00 +26°C° 0 mm 2 mps 735 mmHg 91%
    01:00 +25°C° 0 mm 1 mps 735 mmHg 92%
    02:00 +25°C° 0 mm 1 mps 735 mmHg 93%
    03:00 +25°C° 0 mm 1 mps 734 mmHg 94%
    04:00 +24°C° 0 mm 1 mps 734 mmHg 95%
    05:00 +25°C° 0 mm 1 mps 734 mmHg 94%
    06:00 +25°C° 0 mm 1 mps 735 mmHg 92%
    07:00 +25°C° 0 mm 1 mps 735 mmHg 91%
    08:00 +27°C° 0 mm 1 mps 735 mmHg 82%
    09:00 +29°C° 0 mm 1 mps 736 mmHg 73%
    10:00 +31°C° 0 mm 1 mps 737 mmHg 64%
    11:00 +32°C° 0.7 mm 1 mps 736 mmHg 63%
    12:00 +32°C° 0.7 mm 1 mps 735 mmHg 61%
    13:00 +33°C° 0.7 mm 1 mps 735 mmHg 60%
    14:00 +33°C° 0.9 mm 1 mps 734 mmHg 60%
    15:00 +33°C° 0.9 mm 1 mps 733 mmHg 60%
    16:00 +33°C° 0.9 mm 1 mps 732 mmHg 59%
    17:00 +31°C° 0 mm 1 mps 732 mmHg 65%
    18:00 +30°C° 0 mm 1 mps 733 mmHg 71%
    19:00 +29°C° 0 mm 1 mps 733 mmHg 77%
    20:00 +28°C° 0 mm 1 mps 734 mmHg 79%
    21:00 +28°C° 0 mm 1 mps 734 mmHg 81%
    22:00 +27°C° 0 mm 1 mps 735 mmHg 82%
    23:00 +27°C° 0 mm 1 mps 734 mmHg 83%

    Day after tomorrow, 24 January, Thursday

    Time Temperature Precipitation Wind Pressure Humidity
    00:00 +27°C° 0 mm 1 mps 734 mmHg 84%
    01:00 +27°C° 0 mm 1 mps 734 mmHg 84%
    02:00 +26°C° 0 mm 1 mps 733 mmHg 85%
    03:00 +24°C° 0 mm 0 mps 733 mmHg 86%
    04:00 +24°C° 0 mm 0 mps 732 mmHg 87%
    05:00 +24°C° 0 mm 0 mps 733 mmHg 88%
    06:00 +24°C° 0 mm 0 mps 733 mmHg 88%
    07:00 +24°C° 0 mm 0 mps 733 mmHg 89%
    08:00 +26°C° 0 mm 0 mps 734 mmHg 80%
    09:00 +30°C° 0 mm 1 mps 734 mmHg 72%
    10:00 +32°C° 0 mm 1 mps 735 mmHg 63%
    11:00 +33°C° 0 mm 1 mps 734 mmHg 58%
    12:00 +34°C° 0 mm 1 mps 733 mmHg 52%
    13:00 +36°C° 0 mm 1 mps 732 mmHg 47%
    14:00 +35°C° 0 mm 1 mps 732 mmHg 48%
    15:00 +35°C° 0 mm 1 mps 731 mmHg 49%
    16:00 +35°C° 0 mm 1 mps 730 mmHg 50%
    17:00 +33°C° 0.2 mm 1 mps 731 mmHg 57%
    18:00 +31°C° 0.2 mm 1 mps 731 mmHg 65%
    19:00 +29°C° 0.2 mm 1 mps 732 mmHg 72%
    20:00 +29°C° 0.2 mm 1 mps 732 mmHg 75%
    21:00 +28°C° 0.2 mm 1 mps 733 mmHg 78%
    22:00 +27°C° 0.2 mm 2 mps 734 mmHg 82%
    23:00 +27°C° 0.1 mm 1 mps 734 mmHg 84%

    25 January, Friday

    Time Temperature Precipitation Wind Pressure Humidity
    00:00 +26°C° 0.1 mm 1 mps 733 mmHg 87%
    01:00 +26°C° 0.1 mm 1 mps 733 mmHg 90%
    02:00 +26°C° 0.2 mm 1 mps 733 mmHg 91%
    03:00 +26°C° 0.2 mm 1 mps 733 mmHg 92%
    04:00 +25°C° 0.2 mm 1 mps 733 mmHg 93%
    05:00 +25°C° 0 mm 1 mps 733 mmHg 94%
    06:00 +25°C° 0 mm 1 mps 734 mmHg 94%
    07:00 +25°C° 0 mm 1 mps 734 mmHg 94%
    08:00 +28°C° 0 mm 1 mps 734 mmHg 83%
    09:00 +30°C° 0 mm 1 mps 735 mmHg 72%
    10:00 +32°C° 0 mm 1 mps 735 mmHg 61%
    11:00 +32°C° 0.7 mm 1 mps 734 mmHg 63%
    12:00 +32°C° 0.7 mm 1 mps 733 mmHg 65%
    13:00 +32°C° 0.7 mm 1 mps 733 mmHg 67%
    14:00 +33°C° 0.4 mm 1 mps 732 mmHg 63%
    15:00 +33°C° 0.4 mm 1 mps 731 mmHg 59%
    16:00 +34°C° 0.4 mm 1 mps 731 mmHg 56%
    17:00 +32°C° 0.6 mm 1 mps 731 mmHg 64%
    18:00 +30°C° 0.6 mm 1 mps 732 mmHg 73%
    19:00 +28°C° 0.6 mm 1 mps 732 mmHg 82%
    20:00 +27°C° 0.7 mm 1 mps 733 mmHg 85%
    21:00 +27°C° 0.7 mm 2 mps 733 mmHg 87%
    22:00 +26°C° 0.7 mm 2 mps 734 mmHg 89%
    23:00 +26°C° 0.1 mm 2 mps 734 mmHg 90%

    26 January, Saturday

    Time Temperature Precipitation Wind Pressure Humidity
    00:00 +25°C° 0.1 mm 1 mps 734 mmHg 91%
    01:00 +25°C° 0.1 mm 1 mps 733 mmHg 92%
    02:00 +25°C° 0 mm 1 mps 733 mmHg 92%
    03:00 +23°C° 0 mm 0 mps 733 mmHg 93%
    04:00 +23°C° 0 mm 0 mps 733 mmHg 93%
    05:00 +23°C° 0 mm 0 mps 734 mmHg 93%
    06:00 +23°C° 0 mm 0 mps 734 mmHg 93%
    07:00 +23°C° 0 mm 0 mps 735 mmHg 93%
    08:00 +26°C° 0 mm 1 mps 735 mmHg 90%
    09:00 +26°C° 0 mm 1 mps 735 mmHg 87%
    10:00 +27°C° 0 mm 1 mps 736 mmHg 83%
    11:00 +29°C° 0 mm 1 mps 735 mmHg 75%
    12:00 +31°C° 0 mm 1 mps 735 mmHg 66%
    13:00 +33°C° 0 mm 1 mps 734 mmHg 57%
    14:00 +33°C° 0 mm 1 mps 733 mmHg 55%
    15:00 +34°C° 0 mm 1 mps 733 mmHg 53%
    16:00 +32°C° 0 mm 0 mps 732 mmHg 51%
    17:00 +32°C° 0.7 mm 1 mps 733 mmHg 62%
    18:00 +29°C° 0.7 mm 1 mps 733 mmHg 74%
    19:00 +27°C° 0.7 mm 1 mps 733 mmHg 86%
    20:00 +26°C° 0.2 mm 1 mps 734 mmHg 88%
    21:00 +26°C° 0.2 mm 1 mps 734 mmHg 90%
    22:00 +26°C° 0.2 mm 1 mps 735 mmHg 91%
    23:00 +25°C° 0 mm 1 mps 735 mmHg 92%

    27 January, Sunday

    Time Temperature Precipitation Wind Pressure Humidity
    00:00 +25°C° 0 mm 1 mps 734 mmHg 93%
    01:00 +25°C° 0 mm 1 mps 734 mmHg 94%
    02:00 +25°C° 0 mm 1 mps 734 mmHg 94%
    03:00 +25°C° 0 mm 1 mps 734 mmHg 94%
    04:00 +24°C° 0 mm 1 mps 734 mmHg 95%
    05:00 +25°C° 0 mm 1 mps 734 mmHg 94%
    06:00 +25°C° 0 mm 1 mps 734 mmHg 94%
    07:00 +23°C° 0 mm 0 mps 735 mmHg 93%
    08:00 +27°C° 0 mm 1 mps 735 mmHg 83%
    09:00 +29°C° 0 mm 1 mps 735 mmHg 73%
    10:00 +31°C° 0 mm 1 mps 736 mmHg 63%
    11:00 +32°C° 0.2 mm 1 mps 735 mmHg 60%
    12:00 +33°C° 0.2 mm 1 mps 734 mmHg 56%
    13:00 +34°C° 0.2 mm 1 mps 733 mmHg 53%
    14:00 +34°C° 0 mm 1 mps 732 mmHg 51%
    15:00 +35°C° 0 mm 1 mps 732 mmHg 49%
    16:00 +35°C° 0 mm 1 mps 731 mmHg 47%
    17:00 +33°C° 0.3 mm 1 mps 732 mmHg 56%
    18:00 +31°C° 0.3 mm 1 mps 732 mmHg 66%
    19:00 +29°C° 0.3 mm 2 mps 733 mmHg 75%
    20:00 +28°C° 0.3 mm 1 mps 733 mmHg 80%
    21:00 +27°C° 0.3 mm 1 mps 734 mmHg 84%
    22:00 +26°C° 0.3 mm 1 mps 735 mmHg 88%
    23:00 +26°C° 0 mm 1 mps 734 mmHg 89%
    Show more